Regional Weather Roundup
Issued by NWS Charleston, WV

Home | Current Version | Previous Version | Graphics & Text | Print | Product List | Glossary On
Versions: 1 2 3 4 5 6 7 8 9 10 11 12 13 14 15 16 17 18 19 20 21 22 23 24 25 26 27 28 29 30 31 32 33 34 35 36 37 38 39 40 41 42 43 44 45 46 47 48 49 50
000
ASUS41 KRLX 010810
RWRRLX
West Virginia Regional Weather Roundup
National Weather Service Charleston WV
400 AM EDT FRI AUG 01 2014

Note: "fair" indicates few or no clouds below 12,000 feet with no
significant weather and/or obstructions to visibility.

WVZ003-010900-
Northern Panhandle of West Virginia

CITY           SKY/WX    TMP DP  RH WIND       PRES   REMARKS
WHEELING       CLEAR     63  59  87 CALM      30.12F
$$

WVZ009-010900-
Northwest West Virginia

CITY           SKY/WX    TMP DP  RH WIND       PRES   REMARKS
PARKERSBURG    FOG       61  61 100 CALM      30.13F VSB 1/2
$$

WVZ006-010900-
Western West Virginia

CITY           SKY/WX    TMP DP  RH WIND       PRES   REMARKS
HUNTINGTON     MOCLDY    61  61 100 N3        30.08S FOG
$$

WVZ015-010900-
West Central West Virginia

CITY           SKY/WX    TMP DP  RH WIND       PRES   REMARKS
CHARLESTON     MOCLDY    62  62 100 CALM      30.10F
$$

WVZ031-010900-
North Central West Virginia

CITY           SKY/WX    TMP DP  RH WIND       PRES   REMARKS
CLARKSBURG     PTCLDY    56  55  97 CALM      30.14S FOG
MORGANTOWN     PTCLDY    62  57  83 CALM      30.15S
$$

WVZ035-042-045-010900-
South Central West Virginia

CITY           SKY/WX    TMP DP  RH WIND       PRES   REMARKS
BECKLEY        MOCLDY    63  57  81 SE6       30.18S
BLUEFIELD      CLOUDY    64  55  72 SE5       30.20S
LEWISBURG      CLOUDY    62  60  94 CALM      30.19S FOG
$$

WVZ047-010900-
Northern Mountains of West Virginia

CITY           SKY/WX    TMP DP  RH WIND       PRES   REMARKS
ELKINS         FOG       55  53  93 CALM      30.20S VSB 1/4
$$

WVZ052-010900-
Eastern Panhandle of West Virginia

CITY           SKY/WX    TMP DP  RH WIND       PRES   REMARKS
MARTINSBURG    MOCLDY    63  59  87 CALM      30.14S FOG
PETERSBURG     CLOUDY    60  57  88 CALM      30.16F FOG
$$



USA.gov is the U.S. government's official web portal to all federal, state and local government web resources and services.